{"data":{"norad_id":58789,"intl_designator":"2024-012C","name":"STARLINK-31166","alt_names":[],"object_type":"PAYLOAD","status":"ACTIVE","operator":null,"country":"US","launch_date":"2024-01-15","launch_site_code":"AFETR","launch_vehicle":null,"mission":null,"orbit_class":"UNKNOWN","rcs_meters":null,"size_class":null,"mass_kg":null,"dimensions":null,"purposes":["comms"],"wikipedia_slug":null,"has_3d_model":false,"image_url":null,"decayed_at":null,"tle_current":{"epoch":"2026-09-20T09:13:10.080480Z","epoch_age_seconds":162863,"freshness":"FRESH","line1":"1 58789U 24012C   26263.38414445 -.00001685  00000+0 -51712-4 0  9999","line2":"2 58789  43.0043 145.5712 0001207 286.8565  73.2154 15.27589142151012","mean_motion":15.27589142,"eccentricity":0.0001207,"inclination_deg":43.0043,"raan_deg":145.5712,"arg_perigee_deg":286.8565,"mean_anomaly_deg":73.2154,"bstar":-5.1712e-5,"rev_number":15101,"period_min":94.266184565483,"perigee_km":482.19357988164,"apogee_km":483.84986359707,"semimajor_km":6861.1587217394,"source":"CELESTRAK","updated_at":"2026-09-21T09:00:33.979138Z"}}}